| time (UTC) | temp F | wind direction | speed MPH | gust MPH | rain 1hr in | rain 24hr in | rain mn in | humidity % | barometer mb |
| 20260505130111 | 30 | 0 | 0.0 | 1.0 | 0.00 | 0.39 | 0.08 | 94 | 1014.4 |
| 20260505124617 | 31 | 0 | 0.0 | 1.0 | 0.00 | 0.39 | 0.08 | 94 | 1014.4 |
| 20260505123116 | 31 | 132 | 0.0 | 0.0 | 0.00 | 0.39 | 0.08 | 94 | 1014.4 |
| 20260505121555 | 31 | 87 | 0.0 | 2.0 | 0.00 | 0.39 | 0.08 | 94 | 1014.2 |
| 20260505120113 | 31 | 0 | 0.0 | 2.0 | 0.00 | 0.39 | 0.08 | 94 | 1014.2 |
| 20260505114555 | 31 | 0 | 0.0 | 5.0 | 0.00 | 0.39 | 0.08 | 94 | 1013.8 |
| 20260505113058 | 32 | 85 | 1.0 | 2.0 | 0.00 | 0.39 | 0.08 | 94 | 1014.0 |
| 20260505111559 | 32 | 0 | 0.0 | 0.0 | 0.00 | 0.39 | 0.08 | 94 | 1013.7 |
| 20260505110107 | 32 | 0 | 0.0 | 1.0 | 0.00 | 0.39 | 0.08 | 94 | 1013.7 |
| 20260505101559 | 33 | 0 | 0.0 | 4.0 | 0.04 | 0.39 | 0.08 | 93 | 1013.6 |
| 20260505100059 | 34 | 356 | 0.0 | 4.0 | 0.07 | 0.39 | 0.08 | 94 | 1013.5 |
| 20260505094602 | 35 | 274 | 0.0 | 3.0 | 0.07 | 0.39 | 0.08 | 93 | 1013.5 |
| 20260505093100 | 35 | 108 | 1.0 | 4.0 | 0.05 | 0.37 | 0.06 | 94 | 1013.3 |
| 20260505091609 | 36 | 113 | 2.0 | 8.0 | 0.03 | 0.35 | 0.04 | 94 | 1013.3 |
| 20260505090058 | 36 | 102 | 3.0 | 8.0 | 0.00 | 0.32 | 0.01 | 93 | 1013.2 |
| 20260505084559 | 36 | 71 | 2.0 | 6.0 | 0.00 | 0.32 | 0.01 | 93 | 1013.2 |
| 20260505083100 | 36 | 56 | 2.0 | 9.0 | 0.00 | 0.32 | 0.01 | 93 | 1013.2 |
| 20260505081557 | 37 | 64 | 4.0 | 10.0 | 0.00 | 0.32 | 0.01 | 92 | 1013.3 |
| 20260505080107 | 38 | 47 | 4.0 | 9.0 | 0.01 | 0.32 | 0.01 | 92 | 1013.3 |
| 20260505074555 | 40 | 25 | 2.0 | 4.0 | 0.01 | 0.32 | 0.01 | 90 | 1013.2 |
| 20260505073103 | 40 | 0 | 0.0 | 0.0 | 0.01 | 0.32 | 0.01 | 90 | 1013.3 |
| 20260505071557 | 40 | 0 | 0.0 | 0.0 | 0.01 | 0.32 | 0.01 | 90 | 1013.3 |
| 20260505070057 | 40 | 0 | 0.0 | 1.0 | 0.00 | 0.31 | 0.00 | 90 | 1013.3 |
| 20260505064604 | 39 | 0 | 0.0 | 1.0 | 0.00 | 0.31 | 0.00 | 90 | 1013.3 |
| 20260505063113 | 39 | 0 | 0.0 | 0.0 | 0.00 | 0.31 | 0.00 | 92 | 1013.2 |
| 20260505061557 | 39 | 0 | 0.0 | 0.0 | 0.00 | 0.31 | 0.00 | 92 | 1013.1 |
| 20260505060100 | 39 | 0 | 0.0 | 0.0 | 0.00 | 0.31 | 0.00 | 91 | 1013.2 |
| 20260505054610 | 39 | 0 | 0.0 | 0.0 | 0.00 | 0.31 | 0.31 | 89 | 1013.4 |
| 20260505053100 | 39 | 266 | 0.0 | 2.0 | 0.00 | 0.31 | 0.31 | 90 | 1013.1 |
| 20260505051554 | 39 | 0 | 0.0 | 0.0 | 0.00 | 0.31 | 0.31 | 91 | 1012.9 |
| 20260505050103 | 39 | 0 | 0.0 | 2.0 | 0.00 | 0.31 | 0.31 | 89 | 1012.8 |
| 20260505041559 | 39 | 0 | 0.0 | 3.0 | 0.01 | 0.31 | 0.31 | 89 | 1013.5 |
| 20260505040059 | 39 | 0 | 0.0 | 1.0 | 0.01 | 0.31 | 0.31 | 90 | 1013.5 |
| 20260505034557 | 40 | 0 | 0.0 | 0.0 | 0.06 | 0.31 | 0.31 | 90 | 1013.5 |
| 20260505033057 | 40 | 200 | 1.0 | 4.0 | 0.16 | 0.31 | 0.31 | 88 | 1013.6 |
| 20260505031607 | 40 | 219 | 1.0 | 4.0 | 0.22 | 0.30 | 0.30 | 87 | 1013.7 |
| 20260505030113 | 41 | 0 | 1.0 | 4.0 | 0.25 | 0.30 | 0.30 | 85 | 1013.5 |
| 20260505024606 | 41 | 226 | 0.0 | 4.0 | 0.22 | 0.25 | 0.25 | 86 | 1013.5 |
| 20260505023059 | 43 | 192 | 2.0 | 7.0 | 0.13 | 0.15 | 0.15 | 87 | 1013.5 |
| 20260505021608 | 43 | 0 | 2.0 | 3.0 | 0.06 | 0.08 | 0.08 | 87 | 1013.1 |
| 20260505020056 | 44 | 0 | 0.0 | 0.0 | 0.04 | 0.05 | 0.05 | 84 | 1012.9 |
| 20260505014608 | 45 | 0 | 0.0 | 1.0 | 0.02 | 0.03 | 0.03 | 80 | 1012.8 |
| 20260505013101 | 46 | 98 | 0.0 | 4.0 | 0.01 | 0.02 | 0.02 | 74 | 1012.2 |
| 20260505011606 | 48 | 25 | 0.0 | 1.0 | 0.01 | 0.02 | 0.02 | 64 | 1012.2 |
| 20260505010056 | 49 | 0 | 1.0 | 3.0 | 0.00 | 0.01 | 0.01 | 60 | 1012.1 |
| 20260505004556 | 50 | 0 | 0.0 | 3.0 | 0.00 | 0.01 | 0.01 | 59 | 1012.2 |
| 20260505003055 | 50 | 18 | 1.0 | 4.0 | 0.00 | 0.01 | 0.01 | 58 | 1012.0 |
| 20260505001558 | 50 | 56 | 0.0 | 3.0 | 0.00 | 0.01 | 0.01 | 58 | 1012.0 |
| 20260505000115 | 50 | 0 | 0.0 | 2.0 | 0.00 | 0.01 | 0.01 | 60 | 1012.0 |
| 20260504234558 | 50 | 0 | 0.0 | 3.0 | 0.00 | 0.01 | 0.01 | 60 | 1011.9 |
| 20260504233108 | 50 | 0 | 0.0 | 1.0 | 0.00 | 0.01 | 0.01 | 61 | 1012.0 |
| 20260504231555 | 49 | 0 | 0.0 | 3.0 | 0.01 | 0.01 | 0.01 | 65 | 1012.0 |
| 20260504230056 | 49 | 0 | 2.0 | 9.0 | 0.01 | 0.01 | 0.01 | 65 | 1011.5 |
| 20260504224609 | 48 | 94 | 0.0 | 2.0 | 0.01 | 0.01 | 0.01 | 77 | 1011.9 |
| 20260504223131 | 48 | 233 | 1.0 | 6.0 | 0.01 | 0.01 | 0.01 | 67 | 1012.4 |
| 20260504221600 | 52 | 241 | 2.0 | 6.0 | 0.00 | 0.00 | 0.00 | 54 | 1012.8 |
| 20260504220100 | 53 | 0 | 0.0 | 7.0 | 0.00 | 0.00 | 0.00 | 46 | 1011.9 |
| 20260504214559 | 53 | 0 | 3.0 | 8.0 | 0.00 | 0.00 | 0.00 | 45 | 1011.1 |
| 20260504213105 | 55 | 36 | 3.0 | 11.0 | 0.00 | 0.00 | 0.00 | 40 | 1011.2 |
| 20260504211602 | 56 | 30 | 5.0 | 13.0 | 0.00 | 0.00 | 0.00 | 37 | 1011.4 |
| 20260504210100 | 59 | 27 | 0.0 | 14.0 | 0.00 | 0.00 | 0.00 | 33 | 1011.2 |
| 20260504204557 | 63 | 49 | 1.0 | 7.0 | 0.00 | 0.00 | 0.00 | 26 | 1010.8 |
| 20260504203111 | 62 | 0 | 1.0 | 8.0 | 0.00 | 0.00 | 0.00 | 30 | 1010.7 |
| 20260504201601 | 60 | 5 | 0.0 | 6.0 | 0.00 | 0.00 | 0.00 | 29 | 1010.9 |
| 20260504200115 | 59 | 194 | 1.0 | 18.0 | 0.00 | 0.00 | 0.00 | 30 | 1011.1 |
| 20260504194559 | 59 | 283 | 6.0 | 13.0 | 0.00 | 0.00 | 0.00 | 31 | 1011.5 |
| 20260504193056 | 60 | 210 | 4.0 | 14.0 | 0.00 | 0.00 | 0.00 | 29 | 1011.2 |
| 20260504191602 | 61 | 211 | 4.0 | 14.0 | 0.00 | 0.00 | 0.00 | 25 | 1011.3 |
| 20260504190100 | 62 | 205 | 3.0 | 10.0 | 0.00 | 0.00 | 0.00 | 26 | 1011.2 |
| 20260504184600 | 62 | 171 | 2.0 | 10.0 | 0.00 | 0.00 | 0.00 | 27 | 1011.3 |
| 20260504183057 | 62 | 252 | 3.0 | 6.0 | 0.00 | 0.00 | 0.00 | 27 | 1011.6 |
| 20260504181557 | 63 | 187 | 3.0 | 9.0 | 0.00 | 0.00 | 0.00 | 26 | 1011.7 |
| 20260504180056 | 64 | 16 | 2.0 | 6.0 | 0.00 | 0.00 | 0.00 | 26 | 1011.9 |
| 20260504174615 | 62 | 150 | 1.0 | 5.0 | 0.00 | 0.00 | 0.00 | 28 | 1012.2 |
| 20260504173100 | 60 | 66 | 0.0 | 4.0 | 0.00 | 0.00 | 0.00 | 30 | 1012.7 |
| 20260504171557 | 58 | 20 | 2.0 | 6.0 | 0.00 | 0.00 | 0.00 | 31 | 1013.0 |
| 20260504160107 | 55 | 206 | 3.0 | 14.0 | 0.00 | 0.00 | 0.00 | 35 | 1012.8 |
| 20260504150106 | 54 | 260 | 1.0 | 7.0 | 0.00 | 0.00 | 0.00 | 34 | 1012.9 |